AEZ370 LIRA-LICJ

Flight info

Callsign AEZ370
Flight time 0h 47m
Altitude 31000
Route RIFFI DCT LURON
Aircraft B738/M-SDE2E3FGHIJ1RWXY/LB1

Departure

Time 2026-05-06 22:08
Airport Ciampino–G. B. Pastine International Airport (LIRA)

Arrival

Time 2026-05-06 22:55
Airport Falcone–Borsellino Airport (LICJ)
Time Latitude Longitude Altitude Speed Heading
2026-05-06 21:39 41.80012 12.59121 392 ft 0 kts 282°
2026-05-06 21:58 41.80011 12.59131 392 ft 2 kts 262°
2026-05-06 21:58 41.80018 12.59151 392 ft 2 kts 237°
2026-05-06 21:58 41.80024 12.59171 392 ft 2 kts 262°
2026-05-06 21:59 41.80025 12.59193 392 ft 2 kts 281°
2026-05-06 21:59 41.80019 12.59213 392 ft 2 kts 301°
2026-05-06 21:59 41.80012 12.59227 392 ft 1 kts 323°
2026-05-06 21:59 41.80010 12.59228 392 ft 0 kts 327°
2026-05-06 22:03 41.80044 12.59205 392 ft 8 kts 333°
2026-05-06 22:03 41.80102 12.59166 392 ft 12 kts 333°
2026-05-06 22:03 41.80197 12.59101 391 ft 18 kts 333°
2026-05-06 22:03 41.80308 12.59022 391 ft 18 kts 333°
2026-05-06 22:04 41.80418 12.58949 391 ft 17 kts 333°
2026-05-06 22:04 41.80523 12.58876 392 ft 17 kts 332°
2026-05-06 22:04 41.80623 12.58805 392 ft 16 kts 332°
2026-05-06 22:04 41.80692 12.58757 392 ft 9 kts 336°
2026-05-06 22:05 41.80729 12.58769 392 ft 5 kts 50°
2026-05-06 22:05 41.80733 12.58779 392 ft 0 kts 62°
2026-05-06 22:06 41.80739 12.58793 392 ft 7 kts 62°
2026-05-06 22:06 41.80769 12.58881 393 ft 11 kts 83°
2026-05-06 22:06 41.80737 12.58932 393 ft 0 kts 154°
2026-05-06 22:07 41.80736 12.58933 393 ft 2 kts 154°
2026-05-06 22:07 41.80520 12.59086 391 ft 79 kts 152°
2026-05-06 22:07 41.79787 12.59587 399 ft 155 kts 154°
2026-05-06 22:08 41.78747 12.60270 1112 ft 171 kts 155°
2026-05-06 22:08 41.77590 12.60558 2250 ft 174 kts 188°
2026-05-06 22:08 41.76554 12.59790 3241 ft 174 kts 224°
2026-05-06 22:08 41.75942 12.58389 4014 ft 182 kts 248°
2026-05-06 22:09 41.75599 12.56723 4853 ft 180 kts 246°
2026-05-06 22:09 41.75149 12.55192 5661 ft 179 kts 245°
2026-05-06 22:09 41.74670 12.53585 6160 ft 198 kts 245°
2026-05-06 22:09 41.74092 12.51800 6449 ft 217 kts 234°
2026-05-06 22:10 41.73014 12.50359 7062 ft 220 kts 217°
2026-05-06 22:10 41.71830 12.49045 7815 ft 225 kts 218°
2026-05-06 22:10 41.70614 12.47677 8590 ft 229 kts 218°
2026-05-06 22:10 41.69390 12.46299 9478 ft 231 kts 217°
2026-05-06 22:11 41.67998 12.45259 10222 ft 232 kts 190°
2026-05-06 22:11 41.66326 12.45138 10620 ft 255 kts 175°
2026-05-06 22:11 41.64467 12.45421 10859 ft 283 kts 172°
2026-05-06 22:11 41.62424 12.45825 11060 ft 311 kts 172°
2026-05-06 22:12 41.60221 12.46271 11497 ft 328 kts 172°
2026-05-06 22:12 41.57936 12.46726 12281 ft 333 kts 172°
2026-05-06 22:12 41.55626 12.47172 13151 ft 338 kts 173°
2026-05-06 22:12 41.53286 12.47614 14048 ft 342 kts 173°
2026-05-06 22:13 41.50908 12.48056 14834 ft 347 kts 174°
2026-05-06 22:13 41.48496 12.48499 15648 ft 352 kts 175°
2026-05-06 22:13 41.46059 12.48943 16487 ft 356 kts 175°
2026-05-06 22:13 41.43587 12.49392 17304 ft 361 kts 175°
2026-05-06 22:14 41.41079 12.49847 18092 ft 366 kts 175°
2026-05-06 22:14 41.38542 12.50307 18815 ft 370 kts 175°
2026-05-06 22:14 41.35975 12.50772 19547 ft 373 kts 176°
2026-05-06 22:14 41.33392 12.51241 20275 ft 376 kts 176°
2026-05-06 22:15 41.30784 12.51713 20977 ft 380 kts 176°
2026-05-06 22:15 41.28151 12.52189 21616 ft 385 kts 176°
2026-05-06 22:15 41.25514 12.52665 22223 ft 390 kts 176°
2026-05-06 22:15 41.22814 12.53152 22873 ft 394 kts 176°
2026-05-06 22:16 41.20090 12.53723 23525 ft 399 kts 174°
2026-05-06 22:16 41.17347 12.54403 24074 ft 402 kts 174°
2026-05-06 22:16 41.14598 12.55125 24664 ft 404 kts 173°
2026-05-06 22:16 41.11835 12.55859 25255 ft 405 kts 173°
2026-05-06 22:17 41.09066 12.56590 25807 ft 407 kts 174°
2026-05-06 22:17 41.06275 12.57318 26318 ft 410 kts 174°
2026-05-06 22:17 41.03471 12.58042 26851 ft 412 kts 174°
2026-05-06 22:17 41.00656 12.58764 27377 ft 413 kts 174°
2026-05-06 22:18 40.97826 12.59485 27913 ft 415 kts 174°
2026-05-06 22:18 40.94984 12.60207 28442 ft 416 kts 174°
2026-05-06 22:18 40.92156 12.60925 29139 ft 412 kts 174°
2026-05-06 22:18 40.89350 12.61639 29959 ft 407 kts 174°
2026-05-06 22:19 40.86591 12.62340 30615 ft 402 kts 174°
2026-05-06 22:19 40.83842 12.63035 30961 ft 403 kts 174°
2026-05-06 22:19 40.78419 12.64403 31008 ft 399 kts 174°
2026-05-06 22:20 40.72918 12.65784 31013 ft 404 kts 174°
2026-05-06 22:20 40.67400 12.67171 31019 ft 403 kts 174°
2026-05-06 22:21 40.61881 12.68560 31015 ft 402 kts 173°
2026-05-06 22:21 40.56395 12.69936 31018 ft 401 kts 173°
2026-05-06 22:22 40.50923 12.71305 31018 ft 399 kts 173°
2026-05-06 22:22 40.45494 12.72661 31019 ft 399 kts 173°
2026-05-06 22:23 40.40044 12.74020 31013 ft 398 kts 173°
2026-05-06 22:23 40.34597 12.75376 31019 ft 398 kts 173°
2026-05-06 22:24 40.29149 12.76731 31017 ft 399 kts 173°
2026-05-06 22:24 40.23687 12.78086 31012 ft 400 kts 173°
2026-05-06 22:25 40.18216 12.79442 31003 ft 401 kts 173°
2026-05-06 22:25 40.12722 12.80801 31018 ft 402 kts 173°
2026-05-06 22:26 40.07215 12.82162 31016 ft 404 kts 173°
2026-05-06 22:26 40.01687 12.83525 31016 ft 404 kts 173°
2026-05-06 22:27 39.96150 12.84889 31016 ft 404 kts 173°
2026-05-06 22:27 39.90633 12.86246 31012 ft 403 kts 173°
2026-05-06 22:28 39.85120 12.87599 31011 ft 403 kts 173°
2026-05-06 22:28 39.80546 12.88720 31009 ft 402 kts 173°
2026-05-06 22:29 39.74147 12.90285 30996 ft 402 kts 172°
2026-05-06 22:29 39.68651 12.91627 31011 ft 402 kts 172°
2026-05-06 22:30 39.64060 12.92745 30668 ft 407 kts 172°
2026-05-06 22:30 39.61276 12.93422 30180 ft 406 kts 172°
2026-05-06 22:30 39.58496 12.94100 29638 ft 406 kts 172°
2026-05-06 22:31 39.55711 12.94777 29091 ft 409 kts 172°
2026-05-06 22:31 39.52902 12.95460 28556 ft 411 kts 172°
2026-05-06 22:31 39.50075 12.96146 28014 ft 413 kts 172°
2026-05-06 22:31 39.47242 12.96834 27496 ft 415 kts 172°
2026-05-06 22:32 39.44439 12.97514 26992 ft 416 kts 172°
2026-05-06 22:32 39.41589 12.98204 26480 ft 417 kts 172°
2026-05-06 22:32 39.38730 12.98896 25994 ft 419 kts 173°
2026-05-06 22:32 39.35858 12.99590 25509 ft 420 kts 173°
2026-05-06 22:33 39.32984 13.00285 25034 ft 421 kts 173°
2026-05-06 22:33 39.30111 13.00979 24560 ft 416 kts 173°
2026-05-06 22:33 39.27291 13.01662 24079 ft 408 kts 173°
2026-05-06 22:33 39.24523 13.02332 23618 ft 400 kts 173°
2026-05-06 22:34 39.21811 13.02987 23090 ft 393 kts 173°
2026-05-06 22:34 39.19142 13.03630 22560 ft 387 kts 173°
2026-05-06 22:34 39.16515 13.04261 22031 ft 381 kts 174°
2026-05-06 22:34 39.13916 13.04885 21511 ft 375 kts 174°
2026-05-06 22:35 39.11367 13.05497 20992 ft 370 kts 174°
2026-05-06 22:35 39.08877 13.06093 20519 ft 366 kts 174°
2026-05-06 22:35 39.06386 13.06690 20024 ft 362 kts 174°
2026-05-06 22:35 39.03927 13.07278 19542 ft 358 kts 174°
2026-05-06 22:36 39.01484 13.07863 19071 ft 355 kts 174°
2026-05-06 22:36 38.99070 13.08439 18607 ft 351 kts 174°
2026-05-06 22:36 38.96668 13.09013 18124 ft 348 kts 174°
2026-05-06 22:36 38.94299 13.09579 17600 ft 345 kts 174°
2026-05-06 22:37 38.91947 13.10140 17080 ft 342 kts 174°
2026-05-06 22:37 38.89622 13.10695 16570 ft 338 kts 174°
2026-05-06 22:37 38.87310 13.11026 16039 ft 329 kts 188°
2026-05-06 22:37 38.85115 13.10424 15574 ft 319 kts 202°
2026-05-06 22:38 38.83174 13.09115 15070 ft 313 kts 215°
2026-05-06 22:38 38.81410 13.07499 14602 ft 310 kts 217°
2026-05-06 22:38 38.79692 13.05850 14131 ft 307 kts 217°
2026-05-06 22:38 38.77998 13.04213 13641 ft 303 kts 217°
2026-05-06 22:39 38.76316 13.02594 13115 ft 301 kts 217°
2026-05-06 22:39 38.74674 13.01024 12761 ft 294 kts 216°
2026-05-06 22:39 38.73058 12.99486 12498 ft 286 kts 216°
2026-05-06 22:39 38.71480 12.97991 12240 ft 278 kts 216°
2026-05-06 22:40 38.69944 12.96538 11982 ft 271 kts 216°
2026-05-06 22:40 38.68438 12.95117 11728 ft 266 kts 216°
2026-05-06 22:40 38.66964 12.93728 11476 ft 260 kts 216°
2026-05-06 22:40 38.65517 12.92365 11226 ft 256 kts 216°
2026-05-06 22:41 38.62697 12.89713 10729 ft 248 kts 214°
2026-05-06 22:41 38.61320 12.88418 10485 ft 244 kts 214°
2026-05-06 22:41 38.59962 12.87143 10242 ft 241 kts 214°
2026-05-06 22:42 38.58617 12.85881 10011 ft 238 kts 214°
2026-05-06 22:42 38.57291 12.84637 9770 ft 236 kts 213°
2026-05-06 22:42 38.55976 12.83404 9502 ft 233 kts 213°
2026-05-06 22:42 38.54672 12.82183 9238 ft 231 kts 213°
2026-05-06 22:43 38.53373 12.80981 8986 ft 229 kts 210°
2026-05-06 22:43 38.51893 12.80351 8720 ft 224 kts 188°
2026-05-06 22:43 38.50358 12.80066 8462 ft 222 kts 188°
2026-05-06 22:43 38.48834 12.79765 8216 ft 221 kts 188°
2026-05-06 22:44 38.47317 12.79454 7966 ft 220 kts 188°
2026-05-06 22:44 38.45809 12.79139 7719 ft 219 kts 188°
2026-05-06 22:44 38.44308 12.78820 7472 ft 218 kts 188°
2026-05-06 22:44 38.42811 12.78499 7232 ft 217 kts 188°
2026-05-06 22:45 38.41323 12.78177 6996 ft 216 kts 188°
2026-05-06 22:45 38.39844 12.77855 6754 ft 215 kts 187°
2026-05-06 22:45 38.38387 12.77537 6517 ft 215 kts 187°
2026-05-06 22:45 38.36918 12.77217 6273 ft 214 kts 187°
2026-05-06 22:46 38.35447 12.76897 6010 ft 214 kts 187°
2026-05-06 22:46 38.33972 12.76685 5735 ft 211 kts 172°
2026-05-06 22:46 38.32590 12.77228 5513 ft 208 kts 156°
2026-05-06 22:46 38.31276 12.77994 5255 ft 207 kts 154°
2026-05-06 22:47 38.29968 12.78777 5093 ft 209 kts 154°
2026-05-06 22:47 38.28643 12.79566 5050 ft 211 kts 154°
2026-05-06 22:47 38.27315 12.80353 5027 ft 210 kts 154°
2026-05-06 22:47 38.26010 12.81123 5008 ft 202 kts 154°
2026-05-06 22:48 38.24773 12.81852 5001 ft 190 kts 154°
2026-05-06 22:48 38.23578 12.82515 4798 ft 189 kts 155°
2026-05-06 22:48 38.22356 12.83176 4495 ft 192 kts 155°
2026-05-06 22:48 38.21114 12.83846 4196 ft 195 kts 155°
2026-05-06 22:49 38.19871 12.84518 3904 ft 198 kts 154°
2026-05-06 22:49 38.18595 12.85209 3607 ft 201 kts 154°
2026-05-06 22:49 38.17300 12.85909 3338 ft 203 kts 154°
2026-05-06 22:49 38.15989 12.86618 3037 ft 207 kts 154°
2026-05-06 22:50 38.14657 12.87339 2736 ft 209 kts 153°
2026-05-06 22:50 38.13314 12.88064 2461 ft 209 kts 153°
2026-05-06 22:50 38.12171 12.89044 2322 ft 189 kts 122°
2026-05-06 22:50 38.11750 12.90518 2318 ft 175 kts 95°
2026-05-06 22:51 38.11857 12.92021 2306 ft 171 kts 70°
2026-05-06 22:51 38.12318 12.93405 2315 ft 169 kts 67°
2026-05-06 22:51 38.12776 12.94776 2316 ft 167 kts 68°
2026-05-06 22:51 38.13213 12.96117 2199 ft 164 kts 67°
2026-05-06 22:52 38.13663 12.97456 1979 ft 164 kts 67°
2026-05-06 22:52 38.14116 12.98774 1716 ft 162 kts 65°
2026-05-06 22:52 38.14533 13.00091 1468 ft 159 kts 67°
2026-05-06 22:52 38.14945 13.01340 1295 ft 152 kts 65°
2026-05-06 22:53 38.15357 13.02517 1096 ft 142 kts 65°
2026-05-06 22:53 38.15744 13.03648 925 ft 138 kts 67°
2026-05-06 22:53 38.16113 13.04758 767 ft 135 kts 66°
2026-05-06 22:53 38.16486 13.05814 623 ft 127 kts 65°
2026-05-06 22:54 38.16828 13.06831 471 ft 125 kts 68°
2026-05-06 22:54 38.17178 13.07870 265 ft 127 kts 68°
2026-05-06 22:54 38.17513 13.08890 96 ft 123 kts 67°
2026-05-06 22:54 38.17813 13.09794 68 ft 100 kts 67°
2026-05-06 22:55 38.18024 13.10413 64 ft 48 kts 67°
2026-05-06 22:55 38.18113 13.10681 62 ft 15 kts 67°
2026-05-06 22:55 38.18160 13.10717 66 ft 8 kts 314°
2026-05-06 22:55 38.18174 13.10645 68 ft 10 kts 277°
2026-05-06 22:56 38.18184 13.10544 66 ft 12 kts 277°
2026-05-06 22:56 38.18196 13.10433 60 ft 13 kts 278°
2026-05-06 22:56 38.18260 13.10368 62 ft 13 kts 346°
2026-05-06 22:56 38.18315 13.10435 60 ft 12 kts 66°
2026-05-06 22:57 38.18363 13.10490 63 ft 9 kts 26°
2026-05-06 22:57 38.18420 13.10516 64 ft 8 kts 18°
2026-05-06 22:57 38.18448 13.10544 60 ft 4 kts 50°
2026-05-06 22:57 38.18471 13.10581 62 ft 5 kts 19°
2026-05-06 22:58 38.18508 13.10570 56 ft 6 kts 338°
2026-05-06 22:58 38.18531 13.10558 64 ft 1 kts 337°
2026-05-06 22:58 38.18532 13.10557 64 ft 0 kts 337°